Time,TemperatureF,DewpointF,PressureIn,WindDirection,WindDirectionDegrees,WindSpeedMPH,WindSpeedGustMPH,Humidity,HourlyPrecipIn,Conditions,Clouds,dailyrainin,SoftwareType,DateUTC
2013-10-25 00:02:00,30.6,18.7,30.30,West,270,0.0,0.0,61,0.00,,,0.00,WUHU21623XXSP,2013-10-25 05:02:00,
2013-10-25 00:07:00,30.4,18.5,30.30,West,270,0.0,0.0,61,0.00,,,0.00,WUHU21623XXSP,2013-10-25 05:07:00,
2013-10-25 00:12:00,30.4,18.5,30.30,West,270,0.0,0.0,61,0.00,,,0.00,WUHU21623XXSP,2013-10-25 05:12:00,
2013-10-25 00:17:00,30.0,18.2,30.30,West,270,0.0,0.0,61,0.00,,,0.00,WUHU21623XXSP,2013-10-25 05:17:00,
2013-10-25 00:22:00,30.0,18.2,30.31,West,270,0.0,0.0,61,0.00,,,0.00,WUHU21623XXSP,2013-10-25 05:22:00,
2013-10-25 00:27:00,29.8,18.4,30.31,West,270,0.0,0.0,62,0.00,,,0.00,WUHU21623XXSP,2013-10-25 05:27:00,
2013-10-25 00:32:00,29.8,18.4,30.31,West,270,0.0,0.0,62,0.00,,,0.00,WUHU21623XXSP,2013-10-25 05:32:00,
2013-10-25 00:37:00,29.7,18.2,30.31,West,270,0.0,0.0,62,0.00,,,0.00,WUHU21623XXSP,2013-10-25 05:37:00,
2013-10-25 00:42:00,29.5,18.0,30.31,West,270,0.0,0.0,62,0.00,,,0.00,WUHU21623XXSP,2013-10-25 05:42:00,
2013-10-25 00:47:00,29.5,18.0,30.31,West,270,0.0,0.0,62,0.00,,,0.00,WUHU21623XXSP,2013-10-25 05:47:00,
2013-10-25 00:52:00,29.5,18.0,30.32,WSW,247,0.0,0.0,62,0.00,,,0.00,WUHU21623XXSP,2013-10-25 05:52:00,
2013-10-25 00:57:00,29.7,18.6,30.32,WNW,292,0.0,0.0,63,0.00,,,0.00,WUHU21623XXSP,2013-10-25 05:57:00,
2013-10-25 01:02:00,29.5,18.4,30.32,West,270,0.0,0.0,63,0.00,,,0.00,WUHU21623XXSP,2013-10-25 06:02:00,
2013-10-25 01:07:00,29.5,18.4,30.32,West,270,0.0,0.0,63,0.00,,,0.00,WUHU21623XXSP,2013-10-25 06:07:00,
2013-10-25 01:12:00,29.7,18.6,30.32,WSW,247,0.7,0.7,63,0.00,,,0.00,WUHU21623XXSP,2013-10-25 06:12:00,
2013-10-25 01:17:00,29.8,18.7,30.32,SW,225,0.0,0.7,63,0.00,,,0.00,WUHU21623XXSP,2013-10-25 06:17:00,
2013-10-25 01:22:00,29.8,18.7,30.32,West,270,0.0,0.0,63,0.00,,,0.00,WUHU21623XXSP,2013-10-25 06:22:00,
2013-10-25 01:27:00,30.0,18.9,30.32,WSW,247,0.0,0.0,63,0.00,,,0.00,WUHU21623XXSP,2013-10-25 06:27:00,
2013-10-25 01:32:00,29.8,18.7,30.32,West,270,0.0,0.0,63,0.00,,,0.00,WUHU21623XXSP,2013-10-25 06:32:00,
2013-10-25 01:37:00,30.0,18.5,30.32,West,270,1.3,1.3,62,0.00,,,0.00,WUHU21623XXSP,2013-10-25 06:37:00,
2013-10-25 01:42:00,29.8,18.4,30.32,WSW,247,0.0,1.3,62,0.00,,,0.00,WUHU21623XXSP,2013-10-25 06:42:00,
2013-10-25 01:47:00,29.8,18.4,30.32,West,270,0.0,0.0,62,0.00,,,0.00,WUHU21623XXSP,2013-10-25 06:47:00,
2013-10-25 01:52:00,29.8,18.4,30.32,WSW,247,0.0,0.0,62,0.00,,,0.00,WUHU21623XXSP,2013-10-25 06:52:00,
2013-10-25 01:57:00,29.8,18.4,30.32,West,270,0.0,0.0,62,0.00,,,0.00,WUHU21623XXSP,2013-10-25 06:57:00,
2013-10-25 02:02:00,29.7,18.2,30.32,SW,225,0.0,0.0,62,0.00,,,0.00,WUHU21623XXSP,2013-10-25 07:02:00,
2013-10-25 02:07:00,29.7,18.2,30.32,West,270,0.0,0.0,62,0.00,,,0.00,WUHU21623XXSP,2013-10-25 07:07:00,
2013-10-25 02:12:00,29.7,18.2,30.33,West,270,0.0,0.0,62,0.00,,,0.00,WUHU21623XXSP,2013-10-25 07:12:00,
2013-10-25 02:17:00,29.5,18.0,30.33,West,270,0.0,0.0,62,0.00,,,0.00,WUHU21623XXSP,2013-10-25 07:17:00,
2013-10-25 02:22:00,29.5,18.0,30.33,West,270,0.0,0.0,62,0.00,,,0.00,WUHU21623XXSP,2013-10-25 07:22:00,
2013-10-25 02:27:00,29.3,17.9,30.33,West,270,0.0,0.0,62,0.00,,,0.00,WUHU21623XXSP,2013-10-25 07:27:00,
2013-10-25 02:32:00,29.3,17.9,30.33,West,270,0.0,0.0,62,0.00,,,0.00,WUHU21623XXSP,2013-10-25 07:32:00,
2013-10-25 02:37:00,29.1,17.7,30.33,WSW,247,0.0,0.0,62,0.00,,,0.00,WUHU21623XXSP,2013-10-25 07:37:00,
2013-10-25 02:42:00,29.1,17.7,30.33,WSW,247,0.0,0.0,62,0.00,,,0.00,WUHU21623XXSP,2013-10-25 07:42:00,
2013-10-25 02:47:00,29.1,17.7,30.33,WSW,247,0.0,0.0,62,0.00,,,0.00,WUHU21623XXSP,2013-10-25 07:47:00,
2013-10-25 02:52:00,28.8,17.4,30.32,WSW,247,0.0,0.0,62,0.00,,,0.00,WUHU21623XXSP,2013-10-25 07:52:00,
2013-10-25 02:56:00,28.8,17.7,30.33,WSW,247,0.0,0.0,63,0.00,,,0.00,WUHU21623XXSP,2013-10-25 07:56:00,
2013-10-25 03:01:00,28.6,17.6,30.33,WSW,247,0.0,0.0,63,0.00,,,0.00,WUHU21623XXSP,2013-10-25 08:01:00,
2013-10-25 03:06:00,28.6,17.6,30.34,WSW,247,0.0,0.0,63,0.00,,,0.00,WUHU21623XXSP,2013-10-25 08:06:00,
2013-10-25 03:11:00,28.2,17.2,30.33,WSW,247,0.0,0.0,63,0.00,,,0.00,WUHU21623XXSP,2013-10-25 08:11:00,
2013-10-25 03:16:00,28.0,17.1,30.33,WSW,247,0.0,0.0,63,0.00,,,0.00,WUHU21623XXSP,2013-10-25 08:16:00,
2013-10-25 03:21:00,28.0,17.1,30.33,WSW,247,0.0,0.0,63,0.00,,,0.00,WUHU21623XXSP,2013-10-25 08:21:00,
2013-10-25 03:26:00,27.9,16.9,30.33,WSW,247,0.0,0.0,63,0.00,,,0.00,WUHU21623XXSP,2013-10-25 08:26:00,
2013-10-25 03:31:00,27.9,16.9,30.34,WSW,247,0.0,0.0,63,0.00,,,0.00,WUHU21623XXSP,2013-10-25 08:31:00,
2013-10-25 03:36:00,27.5,16.5,30.34,WSW,247,0.0,0.0,63,0.00,,,0.00,WUHU21623XXSP,2013-10-25 08:36:00,
2013-10-25 03:41:00,27.3,16.7,30.34,WSW,247,0.0,0.0,64,0.00,,,0.00,WUHU21623XXSP,2013-10-25 08:41:00,
2013-10-25 03:46:00,27.3,16.7,30.33,WSW,247,0.0,0.0,64,0.00,,,0.00,WUHU21623XXSP,2013-10-25 08:46:00,
2013-10-25 03:51:00,27.1,16.5,30.33,WSW,247,0.0,0.0,64,0.00,,,0.00,WUHU21623XXSP,2013-10-25 08:51:00,
2013-10-25 03:56:00,27.3,16.7,30.33,WSW,247,0.0,0.0,64,0.00,,,0.00,WUHU21623XXSP,2013-10-25 08:56:00,
2013-10-25 04:01:00,27.1,16.5,30.33,WSW,247,0.0,0.0,64,0.00,,,0.00,WUHU21623XXSP,2013-10-25 09:01:00,
2013-10-25 04:06:00,27.0,16.7,30.33,WSW,247,0.0,0.0,65,0.00,,,0.00,WUHU21623XXSP,2013-10-25 09:06:00,
2013-10-25 04:11:00,27.0,16.7,30.33,WSW,247,0.0,0.0,65,0.00,,,0.00,WUHU21623XXSP,2013-10-25 09:11:00,
2013-10-25 04:16:00,27.0,16.7,30.33,WSW,247,0.0,0.0,65,0.00,,,0.00,WUHU21623XXSP,2013-10-25 09:16:00,
2013-10-25 04:21:00,26.8,16.5,30.33,WSW,247,0.0,0.0,65,0.00,,,0.00,WUHU21623XXSP,2013-10-25 09:21:00,
2013-10-25 04:26:00,26.8,16.5,30.34,WSW,247,0.0,0.0,65,0.00,,,0.00,WUHU21623XXSP,2013-10-25 09:26:00,
2013-10-25 04:31:00,26.8,16.5,30.34,WSW,247,0.0,0.0,65,0.00,,,0.00,WUHU21623XXSP,2013-10-25 09:31:00,
2013-10-25 04:36:00,26.8,16.9,30.35,WSW,247,0.0,0.0,66,0.00,,,0.00,WUHU21623XXSP,2013-10-25 09:36:00,
2013-10-25 04:41:00,26.8,16.9,30.35,WSW,247,0.0,0.0,66,0.00,,,0.00,WUHU21623XXSP,2013-10-25 09:41:00,
2013-10-25 04:46:00,26.8,16.9,30.35,WNW,292,0.0,0.0,66,0.00,,,0.00,WUHU21623XXSP,2013-10-25 09:46:00,
2013-10-25 04:51:00,26.8,16.9,30.35,West,270,0.0,0.0,66,0.00,,,0.00,WUHU21623XXSP,2013-10-25 09:51:00,
2013-10-25 04:56:00,26.8,16.9,30.35,West,270,0.0,0.0,66,0.00,,,0.00,WUHU21623XXSP,2013-10-25 09:56:00,
2013-10-25 05:01:00,26.8,17.2,30.35,WNW,292,0.0,0.0,67,0.00,,,0.00,WUHU21623XXSP,2013-10-25 10:01:00,
2013-10-25 05:06:00,27.0,17.4,30.35,WNW,292,0.0,0.0,67,0.00,,,0.00,WUHU21623XXSP,2013-10-25 10:06:00,
2013-10-25 05:11:00,27.0,17.4,30.35,WNW,292,0.0,0.0,67,0.00,,,0.00,WUHU21623XXSP,2013-10-25 10:11:00,
2013-10-25 05:16:00,27.0,17.4,30.35,WNW,292,0.0,0.0,67,0.00,,,0.00,WUHU21623XXSP,2013-10-25 10:16:00,
2013-10-25 05:21:00,27.1,17.6,30.35,WNW,292,0.0,0.0,67,0.00,,,0.00,WUHU21623XXSP,2013-10-25 10:21:00,
2013-10-25 05:26:00,27.3,17.8,30.35,WNW,292,0.0,0.0,67,0.00,,,0.00,WUHU21623XXSP,2013-10-25 10:26:00,
2013-10-25 05:31:00,27.1,17.6,30.35,WNW,292,0.0,0.0,67,0.00,,,0.00,WUHU21623XXSP,2013-10-25 10:31:00,
2013-10-25 05:36:00,27.1,17.6,30.35,WNW,292,0.0,0.0,67,0.00,,,0.00,WUHU21623XXSP,2013-10-25 10:36:00,
2013-10-25 05:41:00,27.1,17.6,30.35,WNW,292,0.0,0.0,67,0.00,,,0.00,WUHU21623XXSP,2013-10-25 10:41:00,
2013-10-25 05:46:00,27.0,17.4,30.35,WNW,292,0.0,0.0,67,0.00,,,0.00,WUHU21623XXSP,2013-10-25 10:46:00,
2013-10-25 05:51:00,27.1,17.6,30.35,WNW,292,0.0,0.0,67,0.00,,,0.00,WUHU21623XXSP,2013-10-25 10:51:00,
2013-10-25 05:56:00,27.0,17.4,30.36,WNW,292,0.0,0.0,67,0.00,,,0.00,WUHU21623XXSP,2013-10-25 10:56:00,
2013-10-25 06:01:00,27.0,17.4,30.35,WNW,292,0.0,0.0,67,0.00,,,0.00,WUHU21623XXSP,2013-10-25 11:01:00,
2013-10-25 06:06:00,26.8,17.6,30.36,WNW,292,0.0,0.0,68,0.00,,,0.00,WUHU21623XXSP,2013-10-25 11:06:00,
2013-10-25 06:11:00,27.0,17.8,30.35,WNW,292,0.0,0.0,68,0.00,,,0.00,WUHU21623XXSP,2013-10-25 11:11:00,
2013-10-25 06:16:00,26.8,17.6,30.35,WNW,292,0.0,0.0,68,0.00,,,0.00,WUHU21623XXSP,2013-10-25 11:16:00,
2013-10-25 06:21:00,27.0,17.8,30.35,WNW,292,0.0,0.0,68,0.00,,,0.00,WUHU21623XXSP,2013-10-25 11:21:00,
2013-10-25 06:26:00,26.8,17.6,30.35,WNW,292,0.0,0.0,68,0.00,,,0.00,WUHU21623XXSP,2013-10-25 11:26:00,
2013-10-25 06:31:00,26.8,17.6,30.35,WNW,292,0.0,0.0,68,0.00,,,0.00,WUHU21623XXSP,2013-10-25 11:31:00,
2013-10-25 06:36:00,26.8,18.0,30.35,WNW,292,0.0,0.0,69,0.00,,,0.00,WUHU21623XXSP,2013-10-25 11:36:00,
2013-10-25 06:41:00,27.0,18.1,30.35,WNW,292,0.0,0.0,69,0.00,,,0.00,WUHU21623XXSP,2013-10-25 11:41:00,
2013-10-25 06:46:00,27.0,18.1,30.35,WNW,292,0.0,0.0,69,0.00,,,0.00,WUHU21623XXSP,2013-10-25 11:46:00,
2013-10-25 06:51:00,27.0,18.1,30.35,WNW,292,0.0,0.0,69,0.00,,,0.00,WUHU21623XXSP,2013-10-25 11:51:00,
2013-10-25 06:56:00,27.0,18.1,30.35,WNW,292,0.0,0.0,69,0.00,,,0.00,WUHU21623XXSP,2013-10-25 11:56:00,
2013-10-25 07:01:00,27.0,18.1,30.35,WNW,292,0.0,0.0,69,0.00,,,0.00,WUHU21623XXSP,2013-10-25 12:01:00,
2013-10-25 07:06:00,26.8,18.0,30.35,WNW,292,0.0,0.0,69,0.00,,,0.00,WUHU21623XXSP,2013-10-25 12:06:00,
2013-10-25 07:11:00,26.8,18.0,30.35,WNW,292,0.0,0.0,69,0.00,,,0.00,WUHU21623XXSP,2013-10-25 12:11:00,
2013-10-25 07:16:00,26.8,18.0,30.35,WNW,292,0.0,0.0,69,0.00,,,0.00,WUHU21623XXSP,2013-10-25 12:16:00,
2013-10-25 07:21:00,26.8,18.0,30.35,WNW,292,0.0,0.0,69,0.00,,,0.00,WUHU21623XXSP,2013-10-25 12:21:00,
2013-10-25 07:26:00,26.8,18.0,30.35,WNW,292,0.0,0.0,69,0.00,,,0.00,WUHU21623XXSP,2013-10-25 12:26:00,
2013-10-25 07:31:00,26.8,18.0,30.35,WNW,292,0.0,0.0,69,0.00,,,0.00,WUHU21623XXSP,2013-10-25 12:31:00,
2013-10-25 07:36:00,26.6,17.8,30.35,WNW,292,0.0,0.0,69,0.00,,,0.00,WUHU21623XXSP,2013-10-25 12:36:00,
2013-10-25 07:41:00,26.8,18.3,30.35,West,270,0.0,0.0,70,0.00,,,0.00,WUHU21623XXSP,2013-10-25 12:41:00,
2013-10-25 07:46:00,26.8,18.3,30.35,West,270,0.0,0.0,70,0.00,,,0.00,WUHU21623XXSP,2013-10-25 12:46:00,
2013-10-25 07:51:00,26.8,18.3,30.35,West,270,0.0,0.0,70,0.00,,,0.00,WUHU21623XXSP,2013-10-25 12:51:00,
2013-10-25 07:56:00,26.8,18.3,30.35,West,270,0.0,0.0,70,0.00,,,0.00,WUHU21623XXSP,2013-10-25 12:56:00,
2013-10-25 08:01:00,27.0,18.5,30.35,West,270,0.0,0.0,70,0.00,,,0.00,WUHU21623XXSP,2013-10-25 13:01:00,
2013-10-25 08:06:00,27.1,18.7,30.36,West,270,0.0,0.0,70,0.00,,,0.00,WUHU21623XXSP,2013-10-25 13:06:00,
2013-10-25 08:11:00,27.1,18.7,30.36,West,270,0.0,0.0,70,0.00,,,0.00,WUHU21623XXSP,2013-10-25 13:11:00,
2013-10-25 08:16:00,27.5,19.3,30.36,West,270,0.0,0.0,71,0.00,,,0.00,WUHU21623XXSP,2013-10-25 13:16:00,
2013-10-25 08:21:00,27.7,19.5,30.36,West,270,0.0,0.0,71,0.00,,,0.00,WUHU21623XXSP,2013-10-25 13:21:00,
2013-10-25 08:26:00,28.0,19.9,30.36,West,270,0.0,0.0,71,0.00,,,0.00,WUHU21623XXSP,2013-10-25 13:26:00,
2013-10-25 08:31:00,28.6,20.4,30.36,SSE,157,0.0,0.0,71,0.00,,,0.00,WUHU21623XXSP,2013-10-25 13:31:00,
2013-10-25 08:36:00,28.9,20.7,30.36,SSE,157,0.0,0.0,71,0.00,,,0.00,WUHU21623XXSP,2013-10-25 13:36:00,
2013-10-25 08:41:00,29.3,21.1,30.36,SE,135,0.0,0.0,71,0.00,,,0.00,WUHU21623XXSP,2013-10-25 13:41:00,
2013-10-25 08:46:00,29.8,21.5,30.36,ESE,112,0.0,0.0,71,0.00,,,0.00,WUHU21623XXSP,2013-10-25 13:46:00,
2013-10-25 08:51:00,30.4,22.1,30.36,ESE,112,0.0,0.0,71,0.00,,,0.00,WUHU21623XXSP,2013-10-25 13:51:00,
2013-10-25 08:56:00,30.7,22.4,30.36,SSW,202,0.0,0.0,71,0.00,,,0.00,WUHU21623XXSP,2013-10-25 13:56:00,
2013-10-25 09:01:00,31.1,22.8,30.36,SSW,202,0.0,0.0,71,0.00,,,0.00,WUHU21623XXSP,2013-10-25 14:01:00,
2013-10-25 09:06:00,31.5,22.8,30.36,South,180,0.0,0.0,71,0.00,,,0.00,WUHU21623XXSP,2013-10-25 14:06:00,
2013-10-25 09:11:00,31.6,23.3,30.36,South,180,0.0,0.0,71,0.00,,,0.00,WUHU21623XXSP,2013-10-25 14:11:00,
2013-10-25 09:16:00,32.2,24.2,30.36,South,180,0.0,0.0,72,0.00,,,0.00,WUHU21623XXSP,2013-10-25 14:16:00,
2013-10-25 09:21:00,32.4,24.3,30.36,South,180,0.0,0.0,72,0.00,,,0.00,WUHU21623XXSP,2013-10-25 14:21:00,
2013-10-25 09:26:00,32.7,25.0,30.36,South,180,0.0,0.0,73,0.00,,,0.00,WUHU21623XXSP,2013-10-25 14:26:00,
2013-10-25 09:31:00,33.3,25.5,30.36,South,180,0.9,0.9,73,0.00,,,0.00,WUHU21623XXSP,2013-10-25 14:31:00,
2013-10-25 09:36:00,33.4,25.6,30.36,South,180,0.0,0.9,73,0.00,,,0.00,WUHU21623XXSP,2013-10-25 14:36:00,
2013-10-25 09:41:00,33.6,25.8,30.36,South,180,0.0,1.8,73,0.00,,,0.00,WUHU21623XXSP,2013-10-25 14:41:00,
2013-10-25 09:46:00,34.2,26.3,30.36,South,180,0.0,1.8,73,0.00,,,0.00,WUHU21623XXSP,2013-10-25 14:46:00,
2013-10-25 09:51:00,34.5,26.7,30.36,SW,225,0.0,0.0,73,0.00,,,0.00,WUHU21623XXSP,2013-10-25 14:51:00,
2013-10-25 09:56:00,34.7,26.7,30.35,SW,225,0.0,0.0,73,0.00,,,0.00,WUHU21623XXSP,2013-10-25 14:56:00,
2013-10-25 10:01:00,35.2,27.1,30.35,South,180,0.0,0.0,72,0.00,,,0.00,WUHU21623XXSP,2013-10-25 15:01:00,
2013-10-25 10:06:00,35.8,27.9,30.35,SSE,157,0.0,0.0,73,0.00,,,0.00,WUHU21623XXSP,2013-10-25 15:06:00,
2013-10-25 10:11:00,36.1,27.8,30.35,SW,225,0.0,0.0,72,0.00,,,0.00,WUHU21623XXSP,2013-10-25 15:11:00,
2013-10-25 10:16:00,36.5,28.3,30.35,South,180,0.0,0.0,72,0.00,,,0.00,WUHU21623XXSP,2013-10-25 15:16:00,
2013-10-25 10:21:00,37.0,28.9,30.35,WSW,247,0.0,0.0,72,0.00,,,0.00,WUHU21623XXSP,2013-10-25 15:21:00,
2013-10-25 10:26:00,37.8,29.2,30.35,SE,135,0.0,0.0,71,0.00,,,0.00,WUHU21623XXSP,2013-10-25 15:26:00,
2013-10-25 10:31:00,38.3,29.7,30.35,SSW,202,0.2,0.2,71,0.00,,,0.00,WUHU21623XXSP,2013-10-25 15:31:00,
2013-10-25 10:36:00,38.8,29.9,30.35,SW,225,0.2,0.2,70,0.00,,,0.00,WUHU21623XXSP,2013-10-25 15:36:00,
2013-10-25 10:41:00,39.6,29.8,30.35,South,180,0.0,0.7,68,0.00,,,0.00,WUHU21623XXSP,2013-10-25 15:41:00,
2013-10-25 10:46:00,39.9,29.8,30.34,South,180,0.0,0.7,67,0.00,,,0.00,WUHU21623XXSP,2013-10-25 15:46:00,
2013-10-25 10:51:00,40.5,30.3,30.34,South,180,0.0,0.0,67,0.00,,,0.00,WUHU21623XXSP,2013-10-25 15:51:00,
2013-10-25 10:56:00,41.0,30.5,30.34,NW,315,0.0,0.9,66,0.00,,,0.00,WUHU21623XXSP,2013-10-25 15:56:00,
2013-10-25 11:01:00,41.5,30.6,30.34,SSW,202,0.0,0.9,65,0.00,,,0.00,WUHU21623XXSP,2013-10-25 16:01:00,
2013-10-25 11:06:00,41.9,30.6,30.34,South,180,0.0,0.0,64,0.00,,,0.00,WUHU21623XXSP,2013-10-25 16:06:00,
2013-10-25 11:11:00,42.8,30.6,30.34,SSE,157,0.0,0.0,62,0.00,,,0.00,WUHU21623XXSP,2013-10-25 16:11:00,
2013-10-25 11:16:00,43.2,30.6,30.34,SSE,157,0.7,0.7,61,0.00,,,0.00,WUHU21623XXSP,2013-10-25 16:16:00,
2013-10-25 11:21:00,43.7,31.1,30.34,SW,225,1.3,1.3,61,0.00,,,0.00,WUHU21623XXSP,2013-10-25 16:21:00,
2013-10-25 11:26:00,44.4,30.6,30.34,SW,225,0.0,1.3,58,0.00,,,0.00,WUHU21623XXSP,2013-10-25 16:26:00,
2013-10-25 11:31:00,45.0,30.6,30.34,SW,225,0.0,1.3,57,0.00,,,0.00,WUHU21623XXSP,2013-10-25 16:31:00,
2013-10-25 11:36:00,45.3,30.9,30.34,WSW,247,0.0,0.4,57,0.00,,,0.00,WUHU21623XXSP,2013-10-25 16:36:00,
2013-10-25 11:41:00,46.2,31.3,30.33,SSW,202,0.0,0.7,56,0.00,,,0.00,WUHU21623XXSP,2013-10-25 16:41:00,
2013-10-25 11:46:00,46.6,30.7,30.33,WSW,247,0.9,0.9,54,0.00,,,0.00,WUHU21623XXSP,2013-10-25 16:46:00,
2013-10-25 11:51:00,46.8,30.4,30.33,SW,225,2.0,2.0,53,0.00,,,0.00,WUHU21623XXSP,2013-10-25 16:51:00,
2013-10-25 11:56:00,47.1,30.8,30.32,SSW,202,2.7,2.7,53,0.00,,,0.00,WUHU21623XXSP,2013-10-25 16:56:00,
2013-10-25 12:01:00,47.3,30.0,30.32,SSE,157,2.9,2.9,51,0.00,,,0.00,WUHU21623XXSP,2013-10-25 17:01:00,
2013-10-25 12:06:00,47.7,29.9,30.32,SSW,202,0.0,2.9,50,0.00,,,0.00,WUHU21623XXSP,2013-10-25 17:06:00,
2013-10-25 12:11:00,48.0,29.7,30.32,SSW,202,1.3,2.0,49,0.00,,,0.00,WUHU21623XXSP,2013-10-25 17:11:00,
2013-10-25 12:16:00,48.4,29.5,30.31,West,270,0.0,1.6,48,0.00,,,0.00,WUHU21623XXSP,2013-10-25 17:16:00,
2013-10-25 12:21:00,48.9,30.5,30.31,SW,225,1.8,1.8,49,0.00,,,0.00,WUHU21623XXSP,2013-10-25 17:21:00,
2013-10-25 12:26:00,49.1,29.6,30.30,WNW,292,0.4,1.8,47,0.00,,,0.00,WUHU21623XXSP,2013-10-25 17:26:00,
2013-10-25 12:31:00,49.8,30.3,30.30,WNW,292,1.1,1.1,47,0.00,,,0.00,WUHU21623XXSP,2013-10-25 17:31:00,
2013-10-25 12:36:00,50.2,30.1,30.30,WSW,247,0.9,1.1,46,0.00,,,0.00,WUHU21623XXSP,2013-10-25 17:36:00,
2013-10-25 12:41:00,50.2,29.6,30.29,North,0,0.0,5.1,45,0.00,,,0.00,WUHU21623XXSP,2013-10-25 17:41:00,
2013-10-25 12:46:00,50.4,29.7,30.29,West,270,1.6,5.1,45,0.00,,,0.00,WUHU21623XXSP,2013-10-25 17:46:00,
2013-10-25 12:51:00,50.5,29.3,30.28,SE,135,0.0,5.4,44,0.00,,,0.00,WUHU21623XXSP,2013-10-25 17:51:00,
2013-10-25 12:56:00,50.4,29.2,30.28,WNW,292,2.0,5.4,44,0.00,,,0.00,WUHU21623XXSP,2013-10-25 17:56:00,
2013-10-25 13:01:00,50.7,29.5,30.27,West,270,0.0,2.0,44,0.00,,,0.00,WUHU21623XXSP,2013-10-25 18:01:00,
2013-10-25 13:06:00,50.9,28.5,30.27,SSW,202,0.7,0.7,42,0.00,,,0.00,WUHU21623XXSP,2013-10-25 18:06:00,
2013-10-25 13:11:00,51.1,27.6,30.27,West,270,4.9,5.1,40,0.00,,,0.00,WUHU21623XXSP,2013-10-25 18:11:00,
2013-10-25 13:16:00,51.3,27.1,30.27,NW,315,0.0,5.1,39,0.00,,,0.00,WUHU21623XXSP,2013-10-25 18:16:00,
2013-10-25 13:21:00,51.3,27.1,30.26,SSW,202,0.0,2.0,39,0.00,,,0.00,WUHU21623XXSP,2013-10-25 18:21:00,
2013-10-25 13:26:00,51.4,27.2,30.26,SSW,202,5.4,5.4,39,0.00,,,0.00,WUHU21623XXSP,2013-10-25 18:26:00,
2013-10-25 13:31:00,51.8,27.5,30.26,SSE,157,4.0,5.4,39,0.00,,,0.00,WUHU21623XXSP,2013-10-25 18:31:00,
2013-10-25 13:36:00,52.0,27.0,30.26,West,270,4.7,4.7,38,0.00,,,0.00,WUHU21623XXSP,2013-10-25 18:36:00,
2013-10-25 13:41:00,52.0,27.0,30.25,WSW,247,2.0,4.7,38,0.00,,,0.00,WUHU21623XXSP,2013-10-25 18:41:00,
2013-10-25 13:46:00,52.0,27.0,30.25,WSW,247,0.0,4.7,38,0.00,,,0.00,WUHU21623XXSP,2013-10-25 18:46:00,
2013-10-25 13:51:00,52.2,27.2,30.25,WSW,247,4.3,7.8,38,0.00,,,0.00,WUHU21623XXSP,2013-10-25 18:51:00,
2013-10-25 13:56:00,52.2,26.5,30.24,South,180,1.1,7.8,37,0.00,,,0.00,WUHU21623XXSP,2013-10-25 18:56:00,
2013-10-25 14:01:00,52.2,26.5,30.24,South,180,0.0,5.8,37,0.00,,,0.00,WUHU21623XXSP,2013-10-25 19:01:00,
2013-10-25 14:06:00,52.3,26.0,30.24,WNW,292,0.0,5.8,36,0.00,,,0.00,WUHU21623XXSP,2013-10-25 19:06:00,
2013-10-25 14:11:00,52.5,26.1,30.23,WSW,247,0.0,1.6,36,0.00,,,0.00,WUHU21623XXSP,2013-10-25 19:11:00,
2013-10-25 14:16:00,52.5,25.4,30.23,South,180,2.7,5.8,35,0.00,,,0.00,WUHU21623XXSP,2013-10-25 19:16:00,
2013-10-25 14:21:00,52.5,25.4,30.23,SSW,202,0.0,5.8,35,0.00,,,0.00,WUHU21623XXSP,2013-10-25 19:21:00,
2013-10-25 14:26:00,52.5,25.4,30.22,SSW,202,0.4,2.7,35,0.00,,,0.00,WUHU21623XXSP,2013-10-25 19:26:00,
2013-10-25 14:31:00,52.5,25.4,30.22,WSW,247,8.7,8.7,35,0.00,,,0.00,WUHU21623XXSP,2013-10-25 19:31:00,
2013-10-25 14:36:00,52.7,24.9,30.22,ESE,112,0.2,8.7,34,0.00,,,0.00,WUHU21623XXSP,2013-10-25 19:36:00,
2013-10-25 14:41:00,52.7,24.9,30.22,WSW,247,5.4,5.4,34,0.00,,,0.00,WUHU21623XXSP,2013-10-25 19:41:00,
2013-10-25 14:46:00,52.7,23.6,30.22,SSE,157,0.0,5.4,32,0.00,,,0.00,WUHU21623XXSP,2013-10-25 19:46:00,
2013-10-25 14:51:00,52.5,24.1,30.21,SW,225,0.0,2.5,33,0.00,,,0.00,WUHU21623XXSP,2013-10-25 19:51:00,
2013-10-25 14:56:00,52.5,24.8,30.21,South,180,1.3,2.5,34,0.00,,,0.00,WUHU21623XXSP,2013-10-25 19:56:00,
2013-10-25 15:01:00,52.7,24.2,30.21,SW,225,3.4,3.4,33,0.00,,,0.00,WUHU21623XXSP,2013-10-25 20:01:00,
2013-10-25 15:06:00,52.7,23.6,30.20,WSW,247,3.4,3.4,32,0.00,,,0.00,WUHU21623XXSP,2013-10-25 20:06:00,
2013-10-25 15:11:00,52.7,23.6,30.20,SW,225,0.9,3.4,32,0.00,,,0.00,WUHU21623XXSP,2013-10-25 20:11:00,
2013-10-25 15:16:00,52.7,23.6,30.20,WSW,247,7.8,7.8,32,0.00,,,0.00,WUHU21623XXSP,2013-10-25 20:16:00,
2013-10-25 15:21:00,52.9,23.7,30.19,WSW,247,1.3,7.8,32,0.00,,,0.00,WUHU21623XXSP,2013-10-25 20:21:00,
2013-10-25 15:26:00,53.2,24.0,30.19,SW,225,4.3,4.9,32,0.00,,,0.00,WUHU21623XXSP,2013-10-25 20:26:00,
2013-10-25 15:31:00,53.2,23.4,30.19,SW,225,0.9,4.3,31,0.00,,,0.00,WUHU21623XXSP,2013-10-25 20:31:00,
2013-10-25 15:36:00,53.2,24.0,30.19,South,180,2.9,3.6,32,0.00,,,0.00,WUHU21623XXSP,2013-10-25 20:36:00,
2013-10-25 15:41:00,53.2,24.0,30.19,SW,225,1.3,3.1,32,0.00,,,0.00,WUHU21623XXSP,2013-10-25 20:41:00,
2013-10-25 15:46:00,53.2,22.7,30.19,SW,225,7.4,7.4,30,0.00,,,0.00,WUHU21623XXSP,2013-10-25 20:46:00,
2013-10-25 15:51:00,53.1,22.5,30.18,SSE,157,0.0,7.4,30,0.00,,,0.00,WUHU21623XXSP,2013-10-25 20:51:00,
2013-10-25 15:56:00,53.1,22.5,30.18,WSW,247,5.6,5.6,30,0.00,,,0.00,WUHU21623XXSP,2013-10-25 20:56:00,
2013-10-25 16:01:00,53.2,21.7,30.18,SSE,157,2.2,5.6,29,0.00,,,0.00,WUHU21623XXSP,2013-10-25 21:01:00,
2013-10-25 16:06:00,53.2,20.8,30.18,SW,225,7.4,8.3,28,0.00,,,0.00,WUHU21623XXSP,2013-10-25 21:06:00,
2013-10-25 16:11:00,53.2,20.8,30.17,SSW,202,1.3,8.3,28,0.00,,,0.00,WUHU21623XXSP,2013-10-25 21:11:00,
2013-10-25 16:16:00,53.2,20.8,30.17,WSW,247,3.1,3.1,28,0.00,,,0.00,WUHU21623XXSP,2013-10-25 21:16:00,
2013-10-25 16:21:00,53.1,18.7,30.17,SE,135,0.0,3.6,26,0.00,,,0.00,WUHU21623XXSP,2013-10-25 21:21:00,
2013-10-25 16:26:00,53.1,19.7,30.17,SSE,157,4.3,4.3,27,0.00,,,0.00,WUHU21623XXSP,2013-10-25 21:26:00,
2013-10-25 16:31:00,53.1,18.7,30.16,WSW,247,1.8,4.3,26,0.00,,,0.00,WUHU21623XXSP,2013-10-25 21:31:00,
2013-10-25 16:36:00,52.9,18.6,30.16,SSE,157,0.0,1.8,26,0.00,,,0.00,WUHU21623XXSP,2013-10-25 21:36:00,
2013-10-25 16:41:00,52.9,18.6,30.15,SSE,157,0.0,0.0,26,0.00,,,0.00,WUHU21623XXSP,2013-10-25 21:41:00,
2013-10-25 16:46:00,52.7,17.5,30.15,SSE,157,1.3,1.3,25,0.00,,,0.00,WUHU21623XXSP,2013-10-25 21:46:00,
2013-10-25 16:51:00,52.7,18.4,30.15,SW,225,4.7,4.7,26,0.00,,,0.00,WUHU21623XXSP,2013-10-25 21:51:00,
2013-10-25 16:56:00,53.2,19.8,30.14,SSE,157,0.0,4.7,27,0.00,,,0.00,WUHU21623XXSP,2013-10-25 21:56:00,
2013-10-25 17:01:00,52.9,19.7,30.14,SSE,157,5.1,6.3,27,0.00,,,0.00,WUHU21623XXSP,2013-10-25 22:01:00,
2013-10-25 17:06:00,52.3,19.0,30.14,South,180,2.5,6.3,27,0.00,,,0.00,WUHU21623XXSP,2013-10-25 22:06:00,
2013-10-25 17:11:00,52.0,19.7,30.14,WSW,247,0.9,5.8,28,0.00,,,0.00,WUHU21623XXSP,2013-10-25 22:11:00,
2013-10-25 17:16:00,51.4,19.2,30.14,WSW,247,3.1,3.1,28,0.00,,,0.00,WUHU21623XXSP,2013-10-25 22:16:00,
2013-10-25 17:21:00,51.3,20.0,30.14,WSW,247,2.2,3.1,29,0.00,,,0.00,WUHU21623XXSP,2013-10-25 22:21:00,
2013-10-25 17:26:00,50.9,19.6,30.14,WSW,247,0.0,2.2,29,0.00,,,0.00,WUHU21623XXSP,2013-10-25 22:26:00,
2013-10-25 17:31:00,50.7,19.5,30.13,SW,225,0.4,1.8,29,0.00,,,0.00,WUHU21623XXSP,2013-10-25 22:31:00,
2013-10-25 17:36:00,50.5,20.9,30.13,SSW,202,0.0,1.8,31,0.00,,,0.00,WUHU21623XXSP,2013-10-25 22:36:00,
2013-10-25 17:41:00,50.2,20.6,30.12,South,180,1.1,1.1,31,0.00,,,0.00,WUHU21623XXSP,2013-10-25 22:41:00,
2013-10-25 17:46:00,49.6,20.1,30.12,SSW,202,0.0,6.0,31,0.00,,,0.00,WUHU21623XXSP,2013-10-25 22:46:00,
2013-10-25 17:51:00,49.5,20.0,30.12,South,180,0.0,6.0,31,0.00,,,0.00,WUHU21623XXSP,2013-10-25 22:51:00,
2013-10-25 17:56:00,49.3,19.9,30.11,SE,135,1.8,1.8,31,0.00,,,0.00,WUHU21623XXSP,2013-10-25 22:56:00,
2013-10-25 18:01:00,48.9,20.2,30.10,SSW,202,0.0,1.8,32,0.00,,,0.00,WUHU21623XXSP,2013-10-25 23:01:00,
2013-10-25 18:06:00,48.9,18.9,30.10,South,180,2.0,2.0,30,0.00,,,0.00,WUHU21623XXSP,2013-10-25 23:06:00,
2013-10-25 18:11:00,48.6,19.3,30.10,South,180,0.0,2.0,31,0.00,,,0.00,WUHU21623XXSP,2013-10-25 23:11:00,
2013-10-25 18:16:00,48.4,19.8,30.11,South,180,0.0,3.1,32,0.00,,,0.00,WUHU21623XXSP,2013-10-25 23:16:00,
2013-10-25 18:21:00,48.4,19.8,30.10,WSW,247,0.0,3.1,32,0.00,,,0.00,WUHU21623XXSP,2013-10-25 23:21:00,
2013-10-25 18:26:00,48.6,19.9,30.10,SSW,202,0.0,0.0,32,0.00,,,0.00,WUHU21623XXSP,2013-10-25 23:26:00,
2013-10-25 18:31:00,48.6,20.6,30.10,SW,225,2.0,2.0,33,0.00,,,0.00,WUHU21623XXSP,2013-10-25 23:31:00,
2013-10-25 18:36:00,48.7,20.8,30.10,South,180,0.0,2.0,33,0.00,,,0.00,WUHU21623XXSP,2013-10-25 23:36:00,
2013-10-25 18:41:00,48.6,20.6,30.09,SW,225,0.0,0.0,33,0.00,,,0.00,WUHU21623XXSP,2013-10-25 23:41:00,
2013-10-25 18:46:00,48.6,20.6,30.09,SW,225,0.0,1.1,33,0.00,,,0.00,WUHU21623XXSP,2013-10-25 23:46:00,
2013-10-25 18:51:00,48.6,20.6,30.09,South,180,0.0,1.1,33,0.00,,,0.00,WUHU21623XXSP,2013-10-25 23:51:00,
2013-10-25 18:56:00,48.4,20.5,30.09,South,180,0.4,0.4,33,0.00,,,0.00,WUHU21623XXSP,2013-10-25 23:56:00,
2013-10-25 19:01:00,48.2,21.8,30.09,SSE,157,0.0,0.4,34,0.00,,,0.00,WUHU21623XXSP,2013-10-26 00:01:00,
2013-10-25 19:06:00,48.4,21.8,30.09,South,180,0.7,0.7,35,0.00,,,0.00,WUHU21623XXSP,2013-10-26 00:06:00,
2013-10-25 19:11:00,47.8,21.3,30.09,SSW,202,3.8,3.8,35,0.00,,,0.00,WUHU21623XXSP,2013-10-26 00:11:00,
2013-10-25 19:16:00,48.0,21.5,30.09,SW,225,0.0,3.8,35,0.00,,,0.00,WUHU21623XXSP,2013-10-26 00:16:00,
2013-10-25 19:21:00,47.8,21.3,30.08,South,180,0.0,0.0,35,0.00,,,0.00,WUHU21623XXSP,2013-10-26 00:21:00,
2013-10-25 19:26:00,47.8,21.3,30.08,South,180,0.4,3.8,35,0.00,,,0.00,WUHU21623XXSP,2013-10-26 00:26:00,
2013-10-25 19:31:00,47.7,20.5,30.08,SSE,157,0.0,3.8,34,0.00,,,0.00,WUHU21623XXSP,2013-10-26 00:31:00,
2013-10-25 19:36:00,47.7,20.5,30.08,SW,225,0.0,2.2,34,0.00,,,0.00,WUHU21623XXSP,2013-10-26 00:36:00,
2013-10-25 19:41:00,47.3,20.8,30.07,SSW,202,0.0,2.2,35,0.00,,,0.00,WUHU21623XXSP,2013-10-26 00:41:00,
2013-10-25 19:46:00,46.9,20.5,30.07,South,180,0.0,2.2,35,0.00,,,0.00,WUHU21623XXSP,2013-10-26 00:46:00,
2013-10-25 19:50:00,46.6,20.2,30.07,SSW,202,6.3,6.3,35,0.00,,,0.00,WUHU21623XXSP,2013-10-26 00:50:00,
2013-10-25 19:55:00,46.2,20.5,30.06,SSW,202,0.0,6.3,36,0.00,,,0.00,WUHU21623XXSP,2013-10-26 00:55:00,
2013-10-25 20:00:00,45.9,20.2,30.06,South,180,0.0,1.1,36,0.00,,,0.00,WUHU21623XXSP,2013-10-26 01:00:00,
2013-10-25 20:05:00,45.5,19.9,30.06,WSW,247,1.8,1.8,36,0.00,,,0.00,WUHU21623XXSP,2013-10-26 01:05:00,
2013-10-25 20:10:00,45.5,19.9,30.06,SSW,202,0.9,1.8,36,0.00,,,0.00,WUHU21623XXSP,2013-10-26 01:10:00,
2013-10-25 20:15:00,45.1,19.6,30.06,South,180,0.0,2.2,36,0.00,,,0.00,WUHU21623XXSP,2013-10-26 01:15:00,
2013-10-25 20:20:00,45.0,19.4,30.05,SW,225,1.6,2.2,36,0.00,,,0.00,WUHU21623XXSP,2013-10-26 01:20:00,
2013-10-25 20:25:00,45.0,20.1,30.05,South,180,0.0,1.6,37,0.00,,,0.00,WUHU21623XXSP,2013-10-26 01:25:00,
2013-10-25 20:30:00,44.8,19.9,30.06,South,180,1.1,1.1,37,0.00,,,0.00,WUHU21623XXSP,2013-10-26 01:30:00,
2013-10-25 20:36:00,44.6,19.7,30.05,SSE,157,1.1,1.1,37,0.00,,,0.00,WUHU21623XXSP,2013-10-26 01:36:00,
2013-10-25 20:41:00,44.2,20.1,30.06,SSE,157,2.5,2.5,38,0.00,,,0.00,WUHU21623XXSP,2013-10-26 01:41:00,
2013-10-25 20:46:00,44.2,20.1,30.06,WSW,247,0.0,2.5,38,0.00,,,0.00,WUHU21623XXSP,2013-10-26 01:46:00,
2013-10-25 20:51:00,44.1,19.9,30.06,South,180,0.7,0.7,38,0.00,,,0.00,WUHU21623XXSP,2013-10-26 01:51:00,
2013-10-25 20:56:00,43.9,20.4,30.06,SSW,202,2.5,2.5,39,0.00,,,0.00,WUHU21623XXSP,2013-10-26 01:56:00,
2013-10-25 21:01:00,43.7,20.3,30.05,SSW,202,2.7,2.7,39,0.00,,,0.00,WUHU21623XXSP,2013-10-26 02:01:00,
2013-10-25 21:06:00,43.5,20.1,30.05,South,180,0.0,2.7,39,0.00,,,0.00,WUHU21623XXSP,2013-10-26 02:06:00,
2013-10-25 21:11:00,43.3,19.9,30.05,ESE,112,2.5,2.5,39,0.00,,,0.00,WUHU21623XXSP,2013-10-26 02:11:00,
2013-10-25 21:16:00,43.3,20.6,30.05,SSE,157,2.7,2.7,40,0.00,,,0.00,WUHU21623XXSP,2013-10-26 02:16:00,
2013-10-25 21:21:00,43.2,20.4,30.05,South,180,1.1,2.7,40,0.00,,,0.00,WUHU21623XXSP,2013-10-26 02:21:00,
2013-10-25 21:26:00,43.0,20.3,30.04,South,180,1.6,2.2,40,0.00,,,0.00,WUHU21623XXSP,2013-10-26 02:26:00,
2013-10-25 21:31:00,42.6,20.0,30.04,SSW,202,2.5,2.5,40,0.00,,,0.00,WUHU21623XXSP,2013-10-26 02:31:00,
2013-10-25 21:36:00,42.4,20.3,30.03,SSW,202,0.0,2.5,41,0.00,,,0.00,WUHU21623XXSP,2013-10-26 02:36:00,
2013-10-25 21:41:00,42.4,20.3,30.03,ESE,112,0.0,4.5,41,0.00,,,0.00,WUHU21623XXSP,2013-10-26 02:41:00,
2013-10-25 21:46:00,42.4,20.3,30.03,SSE,157,0.0,4.5,41,0.00,,,0.00,WUHU21623XXSP,2013-10-26 02:46:00,
2013-10-25 21:51:00,42.3,20.2,30.03,SSW,202,0.7,0.7,41,0.00,,,0.00,WUHU21623XXSP,2013-10-26 02:51:00,
2013-10-25 21:56:00,42.1,20.5,30.03,ENE,67,0.0,1.6,42,0.00,,,0.00,WUHU21623XXSP,2013-10-26 02:56:00,
2013-10-25 22:01:00,41.9,20.4,30.03,South,180,2.2,4.0,42,0.00,,,0.00,WUHU21623XXSP,2013-10-26 03:01:00,
2013-10-25 22:06:00,41.9,20.4,30.03,South,180,0.0,4.0,42,0.00,,,0.00,WUHU21623XXSP,2013-10-26 03:06:00,
2013-10-25 22:11:00,41.9,20.9,30.03,SSW,202,0.0,1.8,43,0.00,,,0.00,WUHU21623XXSP,2013-10-26 03:11:00,
2013-10-25 22:16:00,41.9,20.9,30.03,South,180,0.0,1.8,43,0.00,,,0.00,WUHU21623XXSP,2013-10-26 03:16:00,
2013-10-25 22:21:00,41.7,20.9,30.03,SSW,202,0.7,1.8,43,0.00,,,0.00,WUHU21623XXSP,2013-10-26 03:21:00,
2013-10-25 22:26:00,41.5,20.6,30.03,SSE,157,0.0,0.7,43,0.00,,,0.00,WUHU21623XXSP,2013-10-26 03:26:00,
2013-10-25 22:31:00,41.7,21.3,30.02,SSW,202,0.0,0.0,44,0.00,,,0.00,WUHU21623XXSP,2013-10-26 03:31:00,
2013-10-25 22:36:00,41.5,21.1,30.02,SSE,157,2.0,2.0,44,0.00,,,0.00,WUHU21623XXSP,2013-10-26 03:36:00,
2013-10-25 22:41:00,41.4,20.9,30.02,South,180,0.0,4.7,44,0.00,,,0.00,WUHU21623XXSP,2013-10-26 03:41:00,
2013-10-25 22:46:00,41.2,21.3,30.02,SSE,157,0.0,4.7,45,0.00,,,0.00,WUHU21623XXSP,2013-10-26 03:46:00,
2013-10-25 22:51:00,41.2,21.3,30.02,SSW,202,0.4,0.9,45,0.00,,,0.00,WUHU21623XXSP,2013-10-26 03:51:00,
2013-10-25 22:56:00,41.0,21.1,30.01,SSE,157,2.0,2.0,45,0.00,,,0.00,WUHU21623XXSP,2013-10-26 03:56:00,
2013-10-25 23:01:00,40.8,20.9,30.01,SSE,157,0.0,2.0,45,0.00,,,0.00,WUHU21623XXSP,2013-10-26 04:01:00,
2013-10-25 23:06:00,40.6,21.3,30.01,SSE,157,0.0,0.4,46,0.00,,,0.00,WUHU21623XXSP,2013-10-26 04:06:00,
2013-10-25 23:11:00,40.5,21.1,30.01,SSE,157,0.0,0.4,46,0.00,,,0.00,WUHU21623XXSP,2013-10-26 04:11:00,
2013-10-25 23:16:00,40.5,21.1,30.01,SSE,157,0.0,0.0,46,0.00,,,0.00,WUHU21623XXSP,2013-10-26 04:16:00,
2013-10-25 23:21:00,40.6,21.8,30.01,South,180,0.0,0.0,47,0.00,,,0.00,WUHU21623XXSP,2013-10-26 04:21:00,
2013-10-25 23:26:00,40.6,21.7,30.01,WSW,247,0.0,0.0,47,0.00,,,0.00,WUHU21623XXSP,2013-10-26 04:26:00,
2013-10-25 23:31:00,41.0,22.2,30.01,SSW,202,0.0,0.0,47,0.00,,,0.00,WUHU21623XXSP,2013-10-26 04:31:00,
2013-10-25 23:36:00,41.2,22.3,30.01,SW,225,2.9,2.9,47,0.00,,,0.00,WUHU21623XXSP,2013-10-26 04:36:00,
2013-10-25 23:41:00,41.4,22.5,30.01,South,180,0.0,2.9,47,0.00,,,0.00,WUHU21623XXSP,2013-10-26 04:41:00,
2013-10-25 23:46:00,41.7,22.8,30.01,SSW,202,0.0,2.0,47,0.00,,,0.00,WUHU21623XXSP,2013-10-26 04:46:00,
2013-10-25 23:51:00,41.9,23.0,30.01,SSE,157,0.0,2.0,47,0.00,,,0.00,WUHU21623XXSP,2013-10-26 04:51:00,
2013-10-25 23:56:00,41.9,22.5,30.01,WSW,247,1.6,1.6,46,0.00,,,0.00,WUHU21623XXSP,2013-10-26 04:56:00,